YZ-1 R/B, 61185

Orbit data source: Space-Track

YZ-1 R/B, 61185 is space debris in MEO originally from a launch on Thu, 19 Sep 2024 UTC launched from the Xichang Space Center, China (XSC). Debris objects in space refer to the collection of defunct objects orbiting the Earth. Examples of debris include non-operational satellites, rocket bodies, and fragments generated from explosions, collisions, or faulty payload assembly.

Loading next visibility...
Identifier
61185, 2024-168A
Orbit
MEO
Country
Flag of CNCN / PRC
Related business
Manufacturer
CALT
Mission
Spacecraft
Bus & Motor
YZ-1, Unknown motor
Mass
~2,075 kg wet, ~2,075 kg dry
Launch date (UTC)
2024-09-19 (2 years ago)
Launch vehicle
Unknown
Launch site
Xichang Space Center, China (XSC)
Object type
Payload
Rocket body
Debris
Shape & HBR
Cyl + 1 Nozzle, 6.2 m
Radar Cross Section
32.704 m², Large (>1 m²)

Expand to show TLE details & history
Last TLE update: 4 days ago

TLE from 4 days ago
0 YZ-1 R/B
1 61185U 24168A   26167.96212007 -.00000076  00000-0  00000-0 0  9995
2 61185  54.3887 303.6930 0076541 308.3596  50.9393  1.80095699 11467
Epoch: 2026-06-16T23:05Z
TLE epoch observation values (Epoch: 2026-06-16T23:05:27.174Z)
Latitude
0.00004°
Longitude
52.08007°
Altitude
22,021.685 km
Speed
3.755 km/s
True Right ascension
20h 14m 40s
True Declination
0° 00' 00"
Sunlit
Object was in daylight at epoch
Visualization orbit readout
Latitude
Unknown
Longitude
Unknown
Altitude
Unknown
Speed
Unknown
Apparent Right ascension
Unknown
Apparent Declination
Unknown
Sunlit
N/A
Visualization observer readout
Local Sidereal Time
07:24:30
Azimuth
Unknown
Elevation
Unknown
Doppler factor
Unknown
Orbital elements
Apogee altitude
22,376.743 km
Perigee altitude
21,939.901 km
Semi-major axis
28,536.459 km
Eccentricity
0.00765
Inclination
54.3887°
RAAN
303.693°
Arg. of periapsis
308.3596°
True anomaly
51.62446°
Mean anomaly
50.9393°
Eccentric anomaly
51.28147°
Mean motion
0.45024 °/min
Orbital period
799.58 mins
BSTAR
0
Loading maneuver chart data...
Computing Atmospheric mass density...
Loading historical data...
Loading historical data...
Loading historical data...
Loading historical data...
Loading historical data...
Loading historical data...
Loading historical data...
Other satellites on launch #168 in the year 2024 (2024-09-19 UTC)

Documentation

Showing up to 5 results
|